Vorticity
10 9 8 7 6 7 8 7 7 8 9 10 7 6 6 6 6 5 4 4 3 4 5 6 6 4 3 2 3 6 8 9 8 6 4 5 8 12 16 19 19 17 16 16 15 14 12 11 11 10 9 8 8 8 8 8 8 7 6 5 5 6 7 8 10 11 11 12 12 12 13 13 13 14 14 15 17 17 18 18 18 18 18 18 18
10 9 8 8 7 6 6 6 7 8 8 6 3 3 3 3 3 2 2 3 4 5 6 6 5 4 5 6 7 9 7 6 5 5 8 11 16 20 21 20 17 16 16 16 15 14 13 13 12 11 10 9 9 9 9 9 9 9 9 9 9 10 11 12 13 13 12 13 15 16 18 18 17 17 17 17 18 18 19 21 20 20 19 19 18
10 9 8 7 5 4 4 5 7 8 5 3 2 2 2 1 0 1 1 2 3 5 5 5 6 6 8 8 8 6 5 7 9 11 14 18 20 21 19 17 15 15 16 17 17 18 17 16 16 16 15 14 14 14 14 15 15 15 16 16 17 18 20 20 21 21 20 19 19 19 19 19 19 19 19 19 18 17 17 17 17 17 18 18 17
9 8 6 5 4 4 5 6 6 6 4 3 2 1 0 0 -0 -0 0 2 3 4 5 6 7 8 8 6 5 5 9 12 14 14 16 19 20 20 18 16 15 16 18 19 18 18 18 17 16 16 15 14 15 15 15 16 16 16 17 17 17 17 17 17 17 17 17 17 16 16 15 15 15 15 16 16 16 15 15 13 12 12 12 13 13
8 7 6 5 6 5 5 5 5 4 3 3 2 2 2 2 1 1 1 3 4 5 6 7 7 5 3 3 6 11 15 15 14 17 19 20 21 20 17 15 17 20 21 19 18 18 17 16 15 14 13 13 14 14 13 14 14 13 13 13 12 12 11 11 11 11 11 12 12 12 12 12 13 14 14 14 13 13 13 12 11 10 10 10 10
8 8 8 7 6 5 4 5 4 4 4 4 4 4 4 2 1 1 2 3 5 6 5 4 2 2 3 9 15 18 17 15 17 19 20 20 21 18 14 16 21 22 20 19 20 19 17 16 15 15 14 14 13 12 11 10 10 10 10 10 9 9 9 9 9 10 10 10 10 9 10 10 10 10 9 8 8 7 7 7 7 8 8 8 8
9 9 8 6 5 5 5 5 6 6 6 6 5 5 3 2 2 3 5 6 6 4 2 2 4 7 12 18 19 18 16 16 18 19 20 22 21 16 17 21 22 21 21 21 22 21 21 22 23 22 22 22 22 22 22 21 21 21 20 21 21 21 21 21 21 20 19 18 17 16 16 16 15 14 13 13 13 12 10 9 8 9 8 7 6
8 7 6 5 5 6 7 7 7 6 6 6 5 3 3 4 5 6 7 5 4 2 3 8 12 16 19 20 18 18 18 18 19 20 23 23 20 18 21 23 22 21 23 23 24 25 25 26 26 27 27 28 28 28 28 28 28 28 27 26 26 26 25 23 22 22 20 19 20 19 19 19 19 18 18 18 18 18 18 19 19 18 18 17 15
6 5 5 6 7 7 6 6 6 5 5 4 3 3 4 6 6 6 4 3 4 7 12 16 17 19 20 19 19 20 20 21 21 22 24 24 21 21 24 23 23 24 25 25 25 25 25 25 25 26 25 25 25 25 25 25 23 22 21 19 19 19 19 19 19 20 20 21 22 23 23 24 24 24 24 24 23 24 25 25 26 25 24 23 22
5 6 6 6 6 5 5 5 4 4 4 3 4 5 6 6 4 3 3 6 11 15 18 18 18 19 20 20 21 23 23 23 23 23 25 25 22 23 25 24 25 26 25 25 25 25 26 26 25 25 25 24 24 23 22 21 20 20 19 19 19 19 20 22 24 25 27 28 29 30 30 31 30 30 30 30 29 30 30 30 30 30 30 29 27
5 5 5 5 5 5 5 4 3 3 4 5 6 5 4 3 3 5 10 14 17 18 19 19 20 21 22 23 24 25 24 24 24 24 25 25 23 24 25 25 25 26 25 26 26 26 26 26 25 25 23 22 21 20 19 18 18 18 20 21 23 25 27 27 29 30 31 31 31 31 30 29 28 28 27 28 28 28 28 29 28 29 30 31 30
4 5 5 5 5 4 3 3 3 5 5 5 4 2 2 4 8 13 16 17 18 19 19 20 22 24 25 26 26 26 26 26 25 24 26 26 25 26 26 26 26 27 28 27 27 27 25 24 22 20 19 18 18 17 16 16 17 19 23 26 28 29 29 28 27 26 25 25 24 23 22 22 22 22 22 22 23 23 23 23 23 23 24 25 25
5 5 5 5 4 3 3 4 5 5 4 3 2 3 7 12 15 17 17 18 19 21 22 25 26 27 27 27 27 26 26 26 25 25 27 27 26 26 26 26 27 27 27 26 26 25 22 19 18 17 16 16 14 13 14 17 22 26 27 27 24 22 20 19 19 18 18 18 19 19 20 21 21 21 22 22 22 23 23 22 22 22 22 23 23
6 5 4 3 3 4 5 5 4 3 2 3 6 10 14 16 17 17 18 20 22 24 26 28 27 27 27 27 27 26 26 26 25 25 25 24 24 25 25 26 26 26 25 24 22 20 17 16 16 14 12 11 13 17 23 26 26 24 20 17 15 14 14 14 15 17 19 20 21 22 23 24 25 25 25 27 27 26 26 26 27 27 27 27 26
5 4 3 3 4 5 5 3 2 2 5 9 13 16 16 17 17 19 21 23 25 26 27 28 27 27 28 27 27 25 24 24 23 22 23 24 25 25 25 25 25 24 22 20 17 17 16 13 10 10 12 18 23 25 25 21 16 13 13 14 15 15 16 18 20 22 24 24 24 26 26 26 26 26 26 25 24 23 24 25 26 27 27 27 27
3 3 4 5 6 4 2 2 3 8 12 15 16 15 16 18 20 22 24 25 27 29 29 29 29 27 27 25 23 22 21 21 22 23 25 26 26 26 25 24 22 20 18 16 15 13 10 9 13 19 23 25 23 18 14 12 13 16 19 21 22 21 21 24 26 26 25 25 24 23 23 22 21 22 22 20 19 20 21 22 22 23 23 24 25
3 5 5 5 3 1 2 6 10 14 15 15 15 15 17 20 22 24 26 27 28 29 28 28 27 24 22 21 20 20 20 21 23 24 25 25 25 25 23 20 17 16 14 11 9 9 12 19 24 24 21 16 12 12 13 17 21 25 27 27 25 24 25 27 28 26 23 20 19 18 19 20 20 21 20 20 20 20 20 21 21 21 22 21 21
5 6 4 2 2 4 8 12 14 15 15 15 16 18 20 23 25 26 27 27 27 27 27 25 23 21 20 19 19 20 21 23 24 25 25 25 23 20 17 15 13 11 8 8 12 18 23 24 20 15 12 11 13 17 22 25 28 28 28 25 23 23 26 26 23 20 18 17 18 20 21 21 20 19 19 20 21 21 21 20 21 21 22 21 19
5 3 2 2 6 10 13 14 14 14 15 16 18 21 23 26 27 26 27 28 28 27 25 22 20 19 19 20 21 22 23 25 26 26 25 22 19 16 13 10 8 7 11 17 23 23 18 13 11 12 13 15 19 24 26 26 26 25 23 22 24 26 25 20 16 15 16 19 22 22 20 18 16 15 17 19 21 22 22 21 21 22 21 20 19
3 1 3 8 12 14 14 14 14 14 16 19 21 23 25 26 27 28 29 29 27 24 22 19 18 18 19 20 22 24 26 27 26 24 21 17 14 11 8 7 10 16 22 24 19 13 10 12 14 14 15 20 25 26 24 22 21 22 23 25 25 21 17 15 15 18 20 20 20 16 13 11 12 13 16 20 23 23 22 21 21 21 20 20 20
2 5 10 13 14 14 13 13 14 16 19 22 23 24 26 28 29 29 27 26 23 20 18 17 17 19 21 23 25 26 26 25 22 18 15 12 10 9 9 14 21 24 22 16 10 10 14 15 15 15 18 24 24 21 20 20 19 22 24 23 19 16 16 18 18 19 19 17 14 11 9 9 11 14 19 24 25 23 21 21 20 18 18 20 21
7 11 13 13 13 13 13 14 16 19 22 24 25 27 29 30 29 27 24 22 19 17 16 18 21 23 26 27 26 25 23 20 16 14 11 10 10 13 18 23 24 20 13 9 10 15 16 15 15 17 21 24 22 18 18 19 21 22 21 17 16 18 20 19 17 15 15 13 11 11 10 8 9 15 23 28 26 22 21 19 18 17 18 19 18
12 13 13 13 12 13 14 16 19 22 24 26 28 29 29 28 27 24 20 18 17 17 20 23 25 27 27 27 24 22 19 15 12 10 10 12 16 20 23 22 19 14 10 10 14 17 17 16 16 19 24 25 19 16 21 23 20 18 16 16 18 19 17 15 14 13 12 12 12 12 10 8 10 18 28 31 25 21 19 17 16 18 17 16 16
14 13 12 12 12 14 16 19 21 24 26 27 29 29 29 27 24 20 17 17 19 22 24 26 26 25 24 22 19 16 14 12 12 12 15 18 20 21 20 18 14 11 8 11 18 19 16 16 18 23 29 25 16 19 28 26 17 14 18 19 16 13 12 14 14 13 12 13 13 12 10 9 12 22 31 31 23 18 17 16 16 17 16 16 17
13 12 12 13 15 17 19 22 24 26 28 29 29 29 27 23 19 17 18 20 23 25 26 26 24 21 19 17 15 15 14 13 15 17 19 20 20 18 17 14 9 6 9 16 21 17 14 19 25 28 28 22 19 26 29 20 15 18 19 15 12 12 14 14 13 13 13 13 13 12 11 10 14 26 33 28 20 17 16 16 15 16 16 16 18
12 12 13 15 18 20 23 26 27 29 30 30 30 27 23 20 18 20 23 25 26 27 25 23 21 19 17 16 15 14 15 17 19 21 20 18 15 11 9 6 5 9 18 23 19 14 18 25 27 26 24 21 19 20 18 15 16 17 13 10 13 15 13 12 13 13 13 13 13 12 11 11 17 29 32 25 18 16 16 15 15 16 17 17 17
12 14 16 18 21 24 26 27 28 29 30 30 28 24 21 21 23 25 27 27 26 25 22 20 19 18 15 14 15 16 19 20 19 16 11 8 6 6 8 11 16 23 25 21 15 17 24 27 25 24 25 21 15 13 15 17 16 12 11 13 15 14 12 12 13 12 12 14 13 11 11 13 21 29 30 22 17 16 16 15 14 15 17 17 17
14 17 19 21 24 26 28 29 29 29 28 26 24 23 24 26 27 27 26 25 23 22 20 17 15 14 14 17 18 18 16 14 12 11 12 13 17 21 25 28 30 28 22 16 18 23 25 24 26 29 26 20 15 15 16 16 13 12 14 14 13 13 13 12 12 13 13 14 13 11 11 15 23 29 27 20 16 16 16 15 14 15 17 17 17
18 20 22 25 27 28 29 30 29 28 26 25 25 27 28 27 26 25 25 24 21 17 14 12 14 16 17 17 16 14 14 16 19 23 26 29 32 34 33 31 27 22 18 18 22 24 23 24 28 27 20 15 16 16 15 13 13 13 13 12 12 13 13 13 13 14 14 13 12 11 12 17 25 28 24 19 16 15 15 14 15 15 16 16 16
21 23 26 27 29 29 30 29 28 27 27 27 27 28 28 26 25 24 22 20 16 14 14 16 18 17 16 16 17 20 22 25 28 28 29 30 30 28 26 24 21 17 17 19 21 22 24 25 23 17 15 15 16 15 13 13 14 13 12 12 13 13 13 13 14 13 13 13 12 11 13 19 26 26 22 18 16 15 14 14 14 14 15 15 16
23 26 27 28 28 29 29 29 28 28 28 28 27 25 24 23 23 22 21 18 17 17 18 18 17 16 18 21 23 23 24 25 25 25 25 25 24 22 21 20 17 16 16 18 21 23 24 22 16 13 15 16 14 13 13 13 13 13 12 12 13 13 13 14 13 13 13 13 12 13 15 20 26 26 22 18 16 15 14 14 14 13 13 14 15
26 27 28 28 29 31 31 30 30 29 28 26 24 22 21 21 22 23 23 21 19 18 17 17 19 21 22 22 21 20 21 23 23 23 22 21 21 20 19 17 16 16 17 20 22 22 20 15 13 14 16 14 13 13 13 13 12 12 12 13 13 14 14 14 13 13 13 13 13 14 17 21 25 26 22 17 16 15 14 15 15 14 14 13 14
26 27 28 30 31 32 31 30 29 28 26 24 23 23 23 23 22 22 21 19 19 18 19 21 22 21 19 19 19 19 19 18 18 18 18 19 19 18 18 17 16 17 19 21 20 17 14 13 14 15 14 13 12 12 12 13 13 12 12 13 13 14 14 14 14 14 14 14 14 15 18 22 24 24 21 18 15 14 15 15 15 15 14 13 13
26 28 31 32 32 31 30 29 28 26 24 24 25 25 24 23 21 19 17 17 20 22 22 21 19 18 17 16 16 15 14 14 14 15 15 15 16 18 20 21 19 16 18 19 17 14 13 13 14 13 13 12 12 12 12 12 12 12 13 14 15 15 14 14 15 15 15 15 16 17 19 22 23 23 21 18 16 15 14 14 15 15 15 14 13
29 32 32 32 32 31 29 27 25 24 24 24 24 23 21 19 19 19 19 20 21 21 19 17 15 14 14 13 12 12 13 13 12 12 13 14 15 16 19 20 18 15 15 16 15 13 13 13 13 13 13 12 12 12 12 12 12 13 14 15 14 15 15 16 17 17 16 17 18 19 20 21 23 24 22 20 17 16 15 15 15 15 15 16 16
32 33 33 32 31 29 27 25 24 23 23 23 22 21 20 19 20 21 20 19 18 16 15 13 12 12 13 13 14 14 14 14 14 14 15 15 14 14 15 17 18 17 16 15 14 13 13 13 13 13 13 13 13 13 13 13 14 14 15 15 16 17 17 17 17 18 19 20 22 23 23 23 24 24 24 22 20 18 16 16 16 17 17 17 17
33 33 32 30 28 26 24 24 24 23 23 22 22 21 20 20 19 18 16 14 13 13 13 13 14 15 16 17 18 18 18 19 20 19 19 19 18 16 15 16 18 18 16 15 14 14 13 13 14 14 15 14 13 13 13 14 15 16 16 17 17 18 19 20 22 23 24 23 22 21 21 21 22 24 24 24 23 21 19 18 17 17 17 16 15
33 31 29 27 25 24 24 24 23 23 22 22 21 20 18 17 16 15 15 15 15 16 17 18 19 20 21 22 22 23 23 22 22 22 22 23 23 22 20 19 19 18 17 16 15 14 15 16 16 15 15 14 14 15 16 16 16 16 18 20 22 24 24 24 23 21 18 15 14 14 14 16 17 19 20 22 24 25 25 24 23 22 20 19 18
32 30 28 28 27 27 26 25 24 24 23 22 21 20 19 18 18 19 19 20 21 22 22 23 23 23 23 23 23 22 22 23 23 23 24 25 26 26 25 23 21 20 18 17 17 17 17 17 16 15 15 15 15 15 16 17 19 23 25 26 24 22 19 16 14 13 13 13 14 14 13 13 14 14 14 15 16 17 18 20 21 22 23 23 24
31 29 28 28 26 24 23 23 22 22 22 22 21 21 21 21 22 23 23 24 24 24 23 23 23 23 23 23 22 22 22 23 23 23 24 24 24 24 24 23 22 21 20 19 19 19 18 17 16 16 15 15 16 18 21 24 26 25 22 18 15 13 13 13 13 13 13 12 11 10 10 10 10 10 10 10 9 10 10 10 10 11 11 12 13
26 25 24 23 22 22 21 21 21 22 22 22 22 22 22 23 23 24 24 24 24 24 23 23 24 23 23 22 22 22 22 22 22 22 22 22 22 22 22 22 22 22 22 21 21 19 18 16 15 16 17 19 22 25 25 23 20 16 13 12 13 13 13 12 10 9 7 6 7 7 7 8 7 7 8 9 10 10 10 9 9 9 9 9 9
25 25 26 26 27 27 27 27 26 25 24 24 24 23 22 22 23 23 23 23 23 23 23 23 22 22 22 22 22 22 22 22 22 22 22 23 23 23 24 24 24 24 23 22 19 17 17 17 18 21 23 24 23 21 17 15 14 13 13 12 10 9 7 6 6 6 6 6 6 5 5 4 4 4 4 4 4 4 4 4 5 6 6 6 7
29 29 30 30 30 30 30 30 30 29 29 28 27 26 25 24 24 23 23 22 22 21 21 21 21 21 22 21 21 21 21 21 20 21 21 21 21 22 22 22 22 21 20 19 19 19 20 22 22 22 20 18 16 14 14 13 12 10 7 6 4 4 5 5 5 4 4 4 3 3 3 3 3 3 3 3 3 3 2 2 2 2 2 2 3
27 26 25 24 23 24 24 25 25 27 28 29 29 30 30 29 29 28 27 26 26 25 25 25 24 24 23 22 22 21 20 20 20 20 20 20 20 20 20 20 20 20 20 21 21 21 20 19 18 16 15 14 13 11 9 7 4 3 3 4 4 4 4 3 3 3 3 4 3 4 5 5 5 5 6 5 5 5 4 4 4 4 5 6 6
21 19 17 16 15 14 13 14 14 16 17 19 20 22 23 23 24 24 24 24 23 23 23 23 23 23 22 21 21 20 20 20 19 19 19 20 19 19 19 19 19 19 19 18 17 17 16 15 14 13 12 10 7 4 3 3 3 4 5 4 4 4 4 5 5 5 5 5 6 6 6 6 6 6 6 6 7 7 7 7 8 8 8 9 8
17 15 13 12 10 8 6 6 6 6 6 7 8 8 9 10 10 10 10 11 11 12 13 14 15 15 16 16 17 17 17 18 18 17 18 18 17 17 17 16 16 16 15 14 14 13 12 10 9 7 5 4 3 3 5 5 5 6 6 6 6 7 6 6 6 6 7 8 9 9 10 10 11 11 11 12 12 11 11 11 10 10 9 9 9
15 13 11 8 6 5 4 3 3 3 3 3 4 4 4 4 5 5 5 5 6 7 8 9 10 11 11 12 13 13 13 13 13 13 13 13 13 12 12 11 11 10 9 8 7 6 5 4 4 4 4 6 7 7 8 8 8 8 8 7 7 8 8 8 9 10 10 11 11 11 12 12 12 12 12 12 12 12 13 13 13 12 12 11 11
12 10 8 6 4 4 3 3 3 4 4 4 4 5 5 5 6 6 6 7 7 7 8 8 7 7 7 6 6 6 6 6 6 6 6 6 6 5 5 5 4 4 4 4 5 5 6 7 8 8 8 9 9 8 8 7 7 6 7 7 8 8 8 8 8 8 8 8 8 8 8 7 7 7 7 7 7 8 8 8 9 9 10 10 11
10 8 5 4 3 3 3 4 4 4 4 5 5 5 5 6 6 6 6 6 6 5 5 5 4 4 3 3 2 2 2 2 2 3 3 4 4 3 4 4 5 5 7 7 8 8 8 8 8 8 7 7 6 6 5 5 5 5 6 6 6 5 5 5 5 5 4 4 4 4 4 4 4 4 4 4 5 5 5 5 6 6 6 7 7
8 6 5 5 5 5 6 7 7 7 8 8 7 7 7 6 6 5 5 5 5 5 5 5 4 4 4 4 4 4 4 4 4 5 4 4 4 4 5 6 7 7 7 6 6 5 5 5 5 5 5 5 4 4 4 3 3 3 2 1 1 1 2 2 2 2 2 2 2 3 3 3 2 3 3 3 4 5 5 5 6 7 9 10 11
7 7 7 7 7 7 8 8 8 8 9 8 8 8 8 7 7 7 6 6 6 6 6 5 5 5 5 5 5 6 6 6 6 6 6 6 6 6 6 6 6 5 4 4 4 4 4 4 4 3 3 3 2 2 1 -0 -1 -1 0 1 2 2 3 3 3 4 4 4 4 4 4 4 4 4 4 5 5 6 7 7 8 9 10 11 12
Height
5633 5629 5625 5620 5616 5611 5606 5600 5595 5589 5584 5578 5573 5568 5562 5556 5550 5543 5537 5530 5523 5517 5509 5502 5495 5487 5480 5473 5465 5458 5451 5444 5436 5429 5422 5415 5407 5400 5393 5387 5380 5374 5368 5362 5356 5351 5347 5342 5337 5332 5328 5324 5320 5315 5311 5307 5303 5300 5295 5292 5289 5285 5283 5281 5282 5288 5287 5280 5278 5279 5278 5278 5277 5276 5275 5275 5275 5274 5275 5276 5277 5278 5279 5280 5282
5627 5623 5618 5614 5609 5604 5598 5593 5587 5582 5576 5571 5565 5559 5553 5546 5540 5533 5526 5519 5512 5505 5497 5489 5482 5474 5466 5459 5451 5444 5436 5429 5421 5414 5406 5399 5391 5384 5377 5371 5364 5358 5352 5346 5341 5335 5331 5326 5321 5317 5312 5308 5304 5300 5297 5292 5288 5285 5281 5277 5275 5271 5268 5267 5267 5270 5271 5266 5263 5263 5263 5262 5262 5261 5261 5261 5261 5260 5260 5261 5261 5263 5265 5266 5268
5621 5616 5611 5606 5601 5596 5590 5585 5579 5574 5568 5562 5556 5549 5542 5536 5529 5523 5515 5508 5500 5492 5484 5476 5468 5460 5452 5444 5436 5428 5420 5412 5404 5397 5389 5382 5375 5368 5361 5354 5348 5342 5335 5329 5325 5320 5315 5310 5305 5301 5296 5292 5289 5284 5281 5277 5273 5271 5267 5263 5261 5258 5255 5253 5253 5253 5255 5253 5250 5249 5249 5248 5248 5247 5247 5247 5247 5247 5247 5247 5247 5248 5250 5252 5254
5614 5609 5604 5598 5593 5588 5582 5576 5570 5565 5558 5552 5546 5539 5532 5525 5518 5511 5503 5495 5487 5478 5470 5461 5453 5445 5436 5428 5420 5411 5403 5395 5387 5380 5372 5364 5358 5350 5343 5336 5330 5323 5318 5313 5308 5303 5298 5293 5289 5285 5281 5277 5274 5270 5266 5263 5259 5256 5254 5250 5247 5245 5242 5240 5239 5238 5239 5239 5237 5235 5235 5235 5234 5233 5233 5233 5233 5233 5233 5234 5235 5236 5237 5238 5240
5607 5601 5596 5591 5585 5579 5573 5567 5561 5555 5549 5542 5536 5528 5521 5514 5506 5498 5490 5481 5473 5464 5455 5446 5438 5429 5419 5411 5402 5392 5383 5376 5369 5362 5355 5347 5339 5332 5325 5318 5313 5307 5301 5296 5291 5286 5282 5278 5274 5270 5267 5263 5259 5255 5252 5249 5246 5242 5239 5236 5233 5231 5228 5226 5225 5224 5224 5224 5223 5221 5220 5220 5220 5219 5218 5219 5219 5219 5219 5220 5221 5223 5224 5225 5226
5599 5594 5589 5583 5577 5571 5565 5559 5552 5546 5539 5532 5525 5517 5509 5502 5493 5485 5477 5468 5459 5450 5440 5430 5421 5412 5402 5393 5383 5374 5364 5358 5353 5346 5339 5331 5322 5314 5307 5302 5297 5291 5285 5280 5275 5271 5267 5262 5259 5255 5252 5248 5245 5242 5238 5235 5232 5228 5225 5222 5218 5216 5215 5213 5212 5211 5210 5209 5208 5207 5206 5206 5206 5205 5203 5202 5204 5205 5205 5206 5207 5209 5210 5211 5212
5592 5586 5581 5575 5569 5563 5556 5550 5543 5536 5528 5521 5513 5505 5497 5489 5481 5472 5463 5454 5444 5435 5425 5414 5404 5394 5385 5375 5366 5357 5347 5341 5336 5330 5322 5315 5305 5296 5291 5287 5281 5275 5269 5264 5260 5256 5251 5247 5243 5240 5237 5233 5230 5227 5224 5220 5217 5214 5210 5207 5204 5202 5201 5199 5198 5197 5196 5194 5192 5192 5192 5191 5189 5188 5187 5186 5187 5188 5189 5191 5194 5194 5195 5197 5198
5585 5579 5573 5566 5560 5554 5547 5540 5532 5524 5517 5509 5501 5493 5484 5476 5467 5457 5448 5439 5429 5418 5408 5398 5387 5377 5368 5358 5349 5341 5331 5323 5319 5314 5307 5297 5287 5281 5277 5272 5267 5261 5255 5250 5245 5241 5237 5232 5229 5226 5222 5219 5216 5213 5210 5206 5204 5201 5197 5194 5192 5190 5188 5186 5184 5183 5181 5180 5179 5178 5177 5176 5174 5172 5171 5170 5171 5172 5172 5174 5178 5180 5180 5181 5182
5577 5570 5564 5558 5551 5544 5537 5529 5521 5513 5505 5497 5488 5479 5470 5461 5451 5442 5432 5423 5413 5402 5391 5380 5371 5361 5352 5342 5333 5324 5315 5306 5300 5297 5293 5282 5270 5267 5263 5257 5253 5248 5242 5237 5232 5227 5223 5219 5216 5213 5209 5206 5203 5200 5197 5193 5191 5189 5186 5184 5181 5179 5176 5174 5172 5170 5168 5167 5166 5164 5163 5161 5159 5157 5156 5155 5155 5157 5158 5158 5161 5163 5164 5165 5165
5568 5562 5555 5548 5541 5534 5526 5518 5509 5501 5492 5483 5474 5464 5455 5445 5436 5426 5416 5406 5396 5385 5374 5363 5354 5345 5336 5326 5317 5308 5299 5290 5282 5278 5277 5268 5257 5253 5250 5244 5239 5235 5230 5225 5220 5214 5210 5207 5204 5201 5197 5194 5191 5188 5185 5182 5179 5177 5174 5172 5169 5167 5164 5162 5159 5157 5156 5155 5153 5151 5149 5148 5146 5144 5143 5142 5142 5144 5144 5144 5145 5146 5148 5150 5150
5560 5553 5546 5538 5531 5522 5514 5505 5496 5487 5478 5468 5459 5449 5440 5430 5421 5410 5400 5389 5379 5368 5357 5346 5337 5329 5320 5311 5303 5293 5284 5276 5267 5261 5259 5253 5244 5240 5236 5231 5227 5222 5217 5214 5209 5204 5200 5196 5193 5190 5187 5185 5182 5179 5176 5172 5169 5166 5163 5160 5157 5154 5152 5150 5148 5147 5145 5143 5141 5139 5138 5137 5135 5133 5132 5131 5131 5132 5132 5132 5132 5133 5134 5136 5136
5551 5543 5535 5527 5519 5510 5501 5492 5483 5474 5464 5454 5444 5435 5425 5415 5405 5394 5383 5373 5363 5352 5341 5331 5322 5313 5305 5296 5288 5279 5271 5263 5254 5248 5245 5239 5232 5228 5224 5219 5215 5211 5206 5203 5199 5196 5192 5187 5184 5181 5179 5176 5173 5170 5167 5163 5160 5156 5153 5149 5146 5143 5141 5139 5138 5137 5135 5134 5132 5130 5128 5128 5127 5125 5123 5123 5122 5121 5121 5120 5121 5122 5123 5124 5125
5540 5532 5524 5515 5506 5498 5489 5480 5470 5461 5451 5441 5431 5420 5410 5399 5388 5378 5368 5357 5347 5337 5326 5316 5307 5298 5290 5282 5275 5267 5259 5251 5243 5236 5232 5227 5221 5216 5212 5208 5205 5200 5197 5194 5190 5187 5184 5180 5176 5173 5170 5168 5165 5162 5159 5155 5151 5147 5144 5141 5138 5135 5133 5131 5129 5128 5127 5126 5124 5122 5121 5120 5119 5117 5115 5115 5114 5113 5112 5111 5112 5113 5114 5114 5115
5529 5521 5513 5504 5495 5486 5477 5468 5458 5448 5437 5427 5416 5405 5394 5383 5372 5362 5352 5342 5332 5323 5312 5302 5293 5284 5277 5269 5262 5255 5248 5241 5234 5227 5222 5216 5211 5206 5202 5198 5195 5191 5188 5186 5183 5180 5177 5174 5170 5166 5163 5160 5157 5154 5151 5147 5143 5140 5137 5135 5131 5128 5126 5124 5122 5120 5119 5118 5116 5115 5114 5112 5111 5110 5109 5108 5106 5105 5105 5104 5104 5105 5106 5107 5108
5519 5510 5502 5493 5484 5475 5465 5455 5445 5435 5423 5411 5401 5390 5378 5368 5357 5346 5337 5327 5318 5309 5300 5290 5281 5272 5265 5257 5251 5244 5238 5231 5225 5219 5213 5207 5202 5197 5193 5190 5186 5184 5181 5178 5176 5173 5170 5167 5163 5160 5156 5153 5149 5147 5144 5140 5137 5134 5131 5128 5125 5121 5119 5118 5116 5114 5112 5110 5109 5108 5107 5106 5104 5104 5103 5102 5100 5099 5099 5098 5098 5099 5099 5100 5101
5509 5500 5491 5483 5473 5463 5454 5443 5432 5421 5409 5397 5385 5375 5364 5353 5342 5331 5322 5313 5304 5295 5287 5278 5269 5261 5254 5247 5241 5234 5228 5222 5216 5210 5205 5199 5194 5190 5186 5183 5180 5177 5174 5172 5169 5166 5164 5160 5157 5153 5149 5146 5143 5140 5137 5134 5131 5128 5125 5122 5118 5115 5113 5112 5111 5109 5107 5105 5104 5103 5102 5101 5099 5098 5098 5097 5095 5093 5094 5093 5093 5094 5094 5095 5096
5499 5490 5481 5472 5461 5451 5441 5430 5418 5407 5396 5383 5370 5360 5350 5339 5329 5319 5309 5299 5291 5283 5274 5267 5259 5252 5245 5238 5232 5226 5219 5213 5208 5203 5198 5193 5189 5184 5181 5177 5175 5171 5169 5166 5163 5160 5157 5154 5151 5147 5144 5140 5137 5133 5130 5127 5124 5121 5118 5115 5112 5109 5108 5106 5105 5104 5103 5102 5100 5099 5098 5096 5095 5094 5093 5092 5091 5090 5089 5089 5089 5089 5090 5091 5092
5489 5480 5470 5460 5450 5438 5427 5417 5405 5393 5381 5370 5357 5345 5335 5326 5315 5306 5297 5288 5280 5272 5264 5257 5250 5243 5237 5230 5224 5217 5212 5206 5201 5196 5192 5188 5184 5180 5177 5173 5170 5167 5163 5160 5156 5153 5150 5147 5145 5142 5139 5135 5131 5128 5124 5120 5118 5115 5113 5110 5107 5105 5104 5103 5101 5101 5100 5099 5097 5096 5094 5093 5092 5090 5089 5088 5087 5086 5086 5085 5085 5086 5087 5087 5088
5479 5469 5459 5448 5437 5426 5414 5402 5391 5379 5367 5356 5344 5332 5321 5312 5302 5293 5285 5277 5269 5262 5255 5248 5241 5235 5229 5222 5216 5209 5204 5199 5195 5191 5187 5183 5179 5176 5173 5169 5166 5162 5159 5155 5151 5147 5144 5142 5139 5136 5133 5130 5126 5122 5119 5116 5113 5111 5109 5106 5104 5103 5101 5100 5099 5098 5097 5096 5095 5094 5092 5091 5090 5088 5086 5085 5084 5083 5083 5083 5083 5084 5084 5085 5086
5468 5458 5448 5436 5424 5413 5400 5388 5377 5366 5354 5342 5331 5320 5310 5299 5290 5281 5273 5265 5258 5251 5245 5240 5234 5227 5221 5215 5209 5203 5198 5193 5189 5185 5182 5179 5175 5172 5169 5166 5162 5158 5155 5152 5148 5144 5140 5137 5134 5131 5128 5124 5121 5118 5115 5112 5110 5108 5106 5104 5102 5101 5100 5099 5098 5097 5095 5094 5093 5092 5091 5089 5088 5086 5084 5083 5082 5081 5081 5081 5081 5082 5083 5083 5084
5457 5447 5436 5424 5412 5399 5387 5375 5363 5352 5341 5330 5318 5308 5299 5289 5279 5270 5263 5256 5249 5242 5236 5230 5225 5220 5214 5208 5203 5198 5193 5189 5185 5181 5178 5175 5172 5168 5165 5162 5158 5155 5151 5148 5145 5141 5138 5134 5130 5127 5123 5120 5117 5115 5112 5109 5107 5105 5104 5102 5101 5100 5099 5097 5097 5096 5095 5094 5092 5091 5090 5088 5086 5085 5083 5081 5080 5080 5080 5080 5080 5081 5082 5083 5084
5446 5434 5423 5412 5400 5387 5375 5362 5350 5339 5328 5318 5307 5297 5287 5279 5270 5262 5255 5248 5242 5235 5228 5222 5216 5212 5207 5202 5197 5192 5188 5184 5181 5177 5174 5170 5167 5164 5161 5157 5154 5151 5148 5145 5141 5138 5135 5131 5128 5124 5120 5117 5115 5112 5110 5108 5106 5104 5103 5101 5100 5099 5098 5097 5096 5095 5094 5093 5092 5090 5089 5087 5086 5084 5082 5080 5079 5079 5079 5080 5080 5081 5082 5083 5084
5434 5422 5410 5399 5388 5376 5364 5351 5339 5328 5317 5307 5297 5287 5278 5270 5262 5254 5247 5241 5234 5228 5221 5215 5209 5204 5200 5196 5191 5187 5184 5180 5177 5173 5170 5166 5163 5159 5156 5153 5150 5148 5145 5142 5138 5135 5132 5128 5125 5121 5118 5115 5113 5111 5109 5107 5105 5103 5102 5101 5100 5099 5098 5097 5096 5095 5094 5093 5092 5090 5089 5087 5085 5083 5081 5079 5079 5079 5079 5080 5081 5081 5082 5083 5084
5422 5410 5398 5386 5375 5364 5354 5342 5330 5319 5308 5298 5288 5278 5269 5261 5254 5247 5240 5234 5228 5222 5216 5210 5205 5200 5195 5191 5187 5183 5179 5176 5173 5169 5165 5162 5158 5155 5152 5150 5147 5144 5141 5138 5135 5132 5129 5126 5122 5118 5115 5113 5111 5110 5108 5107 5105 5104 5103 5102 5100 5099 5098 5098 5097 5095 5094 5093 5092 5090 5089 5087 5085 5082 5080 5079 5079 5080 5080 5081 5082 5082 5083 5084 5086
5411 5399 5387 5375 5363 5352 5341 5331 5321 5311 5300 5291 5282 5272 5263 5255 5248 5240 5234 5228 5223 5217 5211 5206 5201 5196 5192 5188 5184 5180 5176 5173 5169 5165 5161 5158 5154 5151 5149 5146 5144 5141 5138 5135 5132 5129 5126 5123 5120 5117 5114 5112 5110 5109 5108 5107 5106 5105 5103 5102 5101 5100 5099 5098 5097 5096 5095 5094 5092 5091 5089 5087 5085 5082 5080 5080 5080 5081 5082 5082 5083 5084 5085 5086 5087
5400 5388 5376 5364 5352 5340 5329 5319 5310 5302 5292 5283 5275 5267 5260 5251 5243 5235 5228 5223 5218 5213 5208 5202 5197 5193 5189 5185 5182 5178 5174 5170 5166 5162 5158 5155 5151 5148 5145 5143 5141 5138 5135 5133 5130 5127 5124 5121 5118 5116 5114 5112 5110 5109 5108 5107 5106 5105 5105 5103 5102 5101 5100 5099 5098 5097 5096 5094 5093 5091 5089 5087 5085 5083 5081 5081 5082 5083 5083 5084 5085 5086 5087 5088 5089
5389 5378 5366 5354 5343 5331 5320 5309 5300 5293 5286 5277 5268 5260 5254 5247 5239 5231 5224 5218 5213 5209 5205 5200 5196 5191 5187 5183 5179 5176 5172 5168 5164 5160 5156 5152 5148 5145 5143 5140 5138 5135 5133 5130 5128 5125 5123 5120 5118 5116 5114 5112 5111 5110 5110 5109 5108 5107 5106 5105 5104 5103 5102 5101 5100 5098 5097 5095 5094 5092 5090 5088 5086 5084 5083 5083 5084 5085 5086 5086 5087 5088 5089 5090 5092
5380 5368 5356 5345 5334 5323 5313 5302 5293 5284 5278 5273 5266 5257 5248 5241 5235 5229 5223 5217 5212 5208 5203 5199 5195 5191 5187 5182 5177 5173 5170 5166 5163 5159 5155 5151 5147 5144 5141 5138 5136 5134 5131 5130 5127 5125 5123 5121 5119 5117 5115 5114 5113 5112 5112 5111 5110 5109 5108 5107 5106 5105 5104 5103 5101 5100 5098 5097 5095 5093 5092 5090 5088 5086 5085 5085 5086 5087 5088 5089 5090 5091 5092 5093 5094
5372 5359 5348 5336 5325 5315 5305 5295 5286 5277 5269 5264 5261 5255 5248 5239 5232 5226 5221 5216 5211 5207 5203 5198 5193 5189 5186 5182 5177 5173 5169 5165 5162 5158 5154 5150 5146 5143 5140 5137 5135 5134 5132 5130 5128 5125 5123 5121 5120 5118 5117 5116 5116 5115 5114 5113 5112 5111 5110 5109 5108 5107 5106 5105 5103 5102 5100 5099 5097 5095 5094 5092 5090 5088 5088 5088 5089 5089 5091 5091 5092 5094 5095 5096 5097
5362 5351 5339 5328 5317 5307 5297 5288 5280 5273 5265 5257 5252 5248 5245 5239 5231 5225 5219 5214 5210 5205 5201 5196 5192 5187 5184 5180 5176 5172 5168 5164 5160 5156 5152 5148 5145 5143 5140 5138 5136 5134 5132 5130 5128 5126 5125 5123 5122 5121 5120 5119 5118 5117 5117 5116 5115 5114 5113 5112 5110 5109 5108 5107 5105 5104 5102 5101 5099 5098 5096 5094 5092 5091 5091 5091 5092 5093 5094 5095 5096 5097 5098 5099 5101
5354 5343 5331 5321 5310 5301 5291 5283 5275 5268 5261 5254 5247 5241 5237 5234 5229 5224 5218 5212 5208 5203 5199 5195 5191 5186 5183 5179 5175 5171 5167 5163 5159 5155 5152 5148 5145 5143 5141 5139 5137 5135 5133 5131 5130 5128 5127 5126 5125 5124 5123 5122 5121 5121 5120 5119 5117 5116 5115 5114 5113 5112 5111 5109 5108 5107 5105 5104 5102 5100 5099 5097 5095 5094 5094 5095 5095 5096 5097 5098 5099 5100 5102 5103 5104
5347 5335 5325 5314 5305 5296 5287 5280 5273 5265 5257 5251 5244 5237 5232 5228 5225 5221 5217 5212 5207 5202 5198 5194 5190 5186 5182 5178 5174 5170 5167 5163 5159 5156 5153 5150 5147 5144 5142 5140 5138 5137 5135 5134 5132 5131 5130 5129 5128 5127 5126 5126 5125 5124 5123 5122 5121 5119 5118 5117 5116 5115 5114 5112 5111 5110 5108 5107 5105 5104 5102 5100 5099 5098 5098 5098 5099 5100 5101 5102 5103 5104 5105 5107 5108
5340 5329 5319 5309 5300 5292 5284 5277 5270 5262 5255 5248 5242 5236 5231 5225 5221 5218 5215 5211 5207 5202 5198 5194 5190 5186 5183 5179 5175 5172 5168 5165 5161 5158 5155 5152 5149 5146 5144 5142 5141 5140 5138 5137 5135 5134 5133 5132 5132 5131 5130 5129 5128 5127 5126 5125 5124 5123 5122 5121 5119 5118 5117 5116 5114 5113 5112 5110 5109 5107 5106 5104 5103 5102 5102 5103 5103 5104 5105 5106 5107 5108 5109 5111 5112
5335 5325 5315 5306 5298 5290 5282 5274 5267 5260 5253 5247 5241 5236 5231 5226 5221 5217 5213 5209 5206 5202 5198 5194 5191 5187 5184 5180 5177 5173 5170 5166 5163 5160 5157 5154 5152 5150 5148 5146 5144 5143 5141 5140 5139 5138 5137 5136 5135 5134 5134 5133 5132 5131 5130 5129 5127 5126 5125 5124 5123 5122 5121 5119 5118 5117 5116 5114 5113 5111 5110 5109 5107 5107 5107 5107 5108 5108 5109 5110 5111 5112 5114 5115 5116
5330 5321 5312 5303 5296 5288 5280 5272 5265 5258 5252 5247 5241 5236 5231 5227 5222 5218 5214 5210 5207 5203 5200 5196 5193 5189 5186 5182 5179 5176 5172 5169 5165 5162 5159 5157 5155 5152 5150 5148 5146 5145 5144 5143 5142 5141 5141 5140 5139 5138 5137 5136 5135 5134 5133 5132 5131 5130 5129 5128 5127 5126 5125 5124 5122 5121 5120 5119 5117 5116 5115 5114 5113 5112 5112 5112 5113 5113 5114 5115 5116 5117 5118 5119 5120
5326 5318 5309 5301 5293 5285 5278 5271 5265 5258 5253 5247 5242 5237 5232 5228 5223 5220 5216 5212 5209 5206 5203 5199 5196 5192 5189 5185 5182 5178 5174 5171 5168 5165 5162 5160 5157 5155 5153 5151 5150 5149 5148 5147 5146 5145 5145 5144 5143 5142 5141 5140 5140 5139 5138 5137 5136 5134 5133 5132 5131 5130 5129 5128 5127 5126 5125 5124 5122 5121 5120 5119 5118 5118 5118 5118 5118 5119 5119 5120 5121 5122 5123 5124 5125
5324 5315 5307 5299 5291 5284 5278 5271 5265 5259 5253 5248 5243 5238 5233 5229 5225 5222 5218 5215 5211 5208 5205 5201 5198 5194 5191 5187 5184 5180 5177 5174 5171 5168 5165 5162 5160 5158 5156 5155 5154 5152 5151 5151 5150 5149 5149 5148 5147 5146 5146 5145 5144 5143 5142 5141 5140 5139 5138 5137 5136 5135 5134 5133 5132 5131 5130 5129 5128 5127 5127 5126 5125 5124 5124 5124 5124 5125 5125 5126 5126 5127 5128 5129 5129
5324 5315 5306 5298 5291 5284 5278 5272 5266 5260 5255 5249 5244 5240 5235 5231 5228 5224 5221 5217 5214 5210 5207 5203 5199 5196 5192 5189 5186 5183 5180 5176 5173 5170 5167 5165 5163 5161 5160 5159 5157 5156 5155 5155 5154 5154 5153 5152 5152 5151 5150 5149 5149 5148 5147 5146 5145 5144 5143 5142 5141 5141 5140 5139 5138 5138 5137 5136 5135 5135 5134 5133 5132 5131 5131 5131 5131 5131 5131 5132 5132 5133 5133 5134 5135
5323 5314 5306 5299 5292 5286 5279 5273 5267 5262 5257 5251 5247 5242 5238 5234 5231 5228 5224 5221 5217 5213 5210 5206 5202 5199 5196 5192 5189 5185 5182 5179 5175 5173 5171 5169 5167 5165 5164 5162 5161 5160 5160 5159 5159 5158 5158 5157 5156 5156 5155 5155 5154 5153 5152 5151 5151 5150 5149 5148 5147 5147 5146 5146 5145 5145 5144 5143 5143 5142 5141 5141 5140 5139 5139 5139 5139 5138 5139 5139 5139 5139 5140 5140 5140
5322 5314 5308 5301 5295 5288 5282 5276 5270 5265 5259 5254 5250 5246 5242 5239 5235 5231 5228 5224 5221 5217 5213 5210 5206 5203 5199 5196 5192 5189 5186 5183 5181 5178 5176 5174 5172 5170 5168 5167 5166 5165 5165 5164 5164 5163 5163 5162 5162 5161 5161 5160 5160 5159 5158 5157 5157 5156 5156 5155 5154 5154 5153 5153 5152 5152 5151 5151 5150 5150 5149 5149 5148 5148 5147 5147 5147 5147 5146 5146 5146 5146 5146 5147 5147
5323 5317 5311 5304 5298 5292 5286 5279 5274 5268 5263 5259 5255 5251 5247 5244 5240 5237 5233 5229 5226 5222 5218 5215 5211 5208 5205 5201 5198 5195 5192 5189 5187 5184 5182 5180 5178 5176 5174 5173 5172 5171 5170 5170 5170 5169 5169 5168 5168 5168 5167 5166 5166 5165 5165 5164 5164 5163 5163 5162 5162 5161 5161 5161 5160 5160 5159 5159 5158 5158 5157 5157 5156 5155 5155 5155 5154 5154 5154 5154 5154 5154 5154 5154 5154
5326 5320 5314 5308 5302 5296 5290 5284 5278 5273 5269 5265 5261 5257 5253 5250 5246 5243 5239 5235 5232 5228 5225 5221 5218 5214 5211 5208 5204 5201 5199 5196 5193 5191 5189 5186 5184 5183 5181 5180 5179 5178 5177 5177 5176 5176 5176 5175 5175 5174 5174 5173 5173 5172 5172 5171 5171 5171 5170 5170 5169 5169 5169 5168 5168 5168 5167 5166 5165 5165 5164 5164 5163 5162 5162 5162 5161 5161 5161 5160 5160 5160 5160 5160 5160
5330 5324 5318 5313 5307 5301 5295 5289 5284 5280 5275 5271 5268 5264 5260 5257 5253 5249 5246 5242 5239 5235 5231 5228 5225 5221 5218 5215 5212 5209 5206 5204 5201 5198 5196 5194 5192 5190 5189 5187 5186 5186 5185 5185 5184 5184 5183 5183 5182 5182 5181 5181 5180 5180 5180 5179 5179 5179 5178 5178 5177 5177 5176 5176 5175 5175 5174 5173 5172 5172 5171 5170 5170 5169 5169 5168 5168 5168 5167 5167 5166 5166 5166 5165 5165
5334 5329 5323 5318 5312 5307 5302 5297 5292 5288 5284 5280 5276 5272 5268 5264 5261 5257 5253 5250 5246 5243 5239 5236 5232 5229 5226 5223 5220 5217 5214 5212 5209 5207 5205 5203 5201 5199 5197 5196 5195 5194 5193 5193 5192 5192 5191 5191 5190 5190 5189 5189 5189 5188 5188 5187 5187 5186 5186 5186 5185 5184 5184 5183 5182 5181 5180 5180 5179 5179 5178 5177 5177 5176 5176 5175 5175 5174 5173 5173 5172 5172 5171 5171 5170
5339 5334 5328 5323 5318 5314 5309 5305 5301 5297 5293 5289 5285 5281 5277 5273 5269 5266 5262 5258 5255 5251 5248 5244 5241 5238 5235 5232 5229 5226 5223 5221 5218 5216 5214 5212 5210 5208 5207 5205 5204 5203 5202 5202 5201 5200 5200 5199 5199 5198 5198 5198 5197 5196 5196 5195 5194 5194 5193 5193 5192 5191 5191 5190 5189 5188 5187 5187 5186 5186 5185 5184 5183 5182 5182 5181 5180 5180 5179 5178 5177 5176 5176 5175 5174
5343 5338 5334 5329 5325 5321 5317 5313 5310 5306 5302 5298 5295 5291 5287 5283 5279 5275 5271 5267 5264 5260 5257 5254 5251 5248 5245 5242 5239 5236 5233 5230 5228 5226 5224 5222 5220 5218 5216 5215 5214 5213 5212 5211 5210 5210 5209 5208 5208 5207 5206 5206 5205 5204 5203 5203 5202 5201 5201 5200 5199 5198 5198 5197 5196 5195 5194 5193 5192 5192 5191 5190 5189 5188 5187 5186 5185 5185 5184 5183 5182 5181 5180 5179 5178
5348 5343 5339 5335 5331 5328 5324 5321 5317 5314 5310 5307 5303 5299 5295 5291 5288 5284 5280 5277 5273 5270 5267 5263 5260 5257 5255 5252 5249 5246 5243 5241 5238 5236 5234 5232 5230 5228 5227 5225 5224 5223 5222 5221 5220 5219 5218 5217 5216 5215 5214 5214 5213 5212 5211 5210 5209 5208 5207 5207 5206 5205 5204 5203 5202 5201 5200 5199 5198 5197 5196 5195 5194 5193 5192 5192 5190 5189 5188 5187 5186 5185 5184 5183 5182
5352 5348 5344 5341 5338 5334 5331 5328 5324 5321 5317 5314 5310 5307 5303 5299 5296 5292 5289 5285 5282 5279 5275 5272 5269 5267 5264 5261 5258 5256 5253 5251 5248 5246 5244 5242 5240 5238 5236 5235 5233 5232 5231 5230 5229 5228 5226 5225 5224 5223 5222 5221 5220 5219 5218 5217 5216 5215 5214 5213 5212 5212 5210 5209 5208 5207 5206 5205 5204 5203 5202 5200 5199 5198 5197 5196 5195 5193 5192 5191 5190 5189 5188 5187 5186
5357 5353 5350 5346 5343 5340 5337 5334 5330 5327 5324 5320 5317 5313 5310 5307 5303 5300 5296 5293 5290 5287 5284 5281 5278 5275 5273 5270 5268 5265 5263 5260 5258 5256 5254 5251 5249 5248 5246 5244 5243 5241 5240 5239 5237 5236 5235 5233 5232 5231 5230 5228 5227 5226 5225 5224 5223 5222 5221 5220 5219 5218 5216 5215 5214 5213 5212 5210 5209 5207 5206 5205 5203 5202 5201 5199 5198 5197 5195 5194 5193 5192 5190 5189 5188
5361 5358 5355 5352 5349 5345 5342 5339 5336 5333 5329 5326 5323 5320 5316 5313 5310 5307 5303 5300 5297 5294 5291 5289 5286 5283 5281 5278 5276 5273 5271 5268 5266 5264 5262 5260 5258 5256 5254 5252 5251 5249 5248 5246 5245 5244 5242 5241 5239 5238 5237 5235 5234 5233 5232 5231 5230 5228 5227 5226 5225 5223 5222 5221 5219 5218 5216 5215 5213 5212 5210 5209 5207 5206 5204 5203 5201 5199 5198 5196 5195 5194 5192 5191 5190
5366 5363 5359 5356 5353 5350 5347 5344 5341 5338 5335 5332 5329 5326 5323 5319 5316 5313 5310 5307 5304 5301 5298 5296 5293 5291 5288 5286 5283 5281 5278 5276 5274 5272 5269 5267 5265 5264 5262 5260 5258 5257 5255 5254 5252 5251 5249 5248 5246 5245 5244 5242 5241 5240 5238 5237 5236 5234 5233 5232 5230 5229 5227 5226 5224 5222 5221 5219 5217 5216 5214 5212 5210 5209 5207 5205 5204 5202 5200 5198 5197 5195 5194 5192 5191